ONEWEB-0226 (48793 NORAD) Tracking and Keplerian Element Data

This shows tracking and keplerian element data for the satellite.

Feedback or suggestion? Click here.




ElementValue
Catalog48793
NameONEWEB-0226
Epoch Orbit351
Epoch Day214.91667824
Epoch Year2021
RAAN254.7048
Inclination87.5663
Eccentricity0.001215
Argument of Perigee54.4274
Mean Anonmoly209.0914
Mean Motion14.29410497
Decay Rate-0.0136328
L11 48793U 21045AC 21214.91667824 -.01363280 00000-0 -57623+0 0 9993
L22 48793 87.5663 254.7048 0012150 54.4274 209.0914 14.29410497 3518

Live tracking and technical data element details for ONEWEB-0226 (NORAD 48793). ONEWEB-0226 can be tracked NOW for your location showing map with azimuth and elevation plus other details from your city location.

Track the satellite on the map from your city or location and see movement details for azimuth, elevation, latitude, longitude, range, height, and movement on the map or in text.







IsCatalogInMostPopularTable: catalog: 48793, numindb: 17
Update: records affected: 1



GetName: 48793 ONEWEB-0226

Hit Count: updated at: Wed, 04 Aug 2021 00:34:00 GMT